Preview of NWS' New Version of Forecast
This preview is not operational and should not be used for support decisions.

Regional Weather Roundup (RWR)

Issued by National Weather Service (NWS)

                            
000
ASUS43 KTOP 181408
RWRKS 

WEATHER ROUNDUP FOR KANSAS
NATIONAL WEATHER SERVICE GOODLAND KS
900 AM CDT TUE JUN 18 2019

NOTE:  "FAIR" INDICATES FEW OR NO CLOUDS BELOW 12,000 FEET WITH NO
SIGNIFICANT WEATHER AND/OR OBSTRUCTIONS TO VISIBILITY.

KSZ001>006-013>018-027>032-041>047-181500-
NORTHWEST KANSAS
  
CITY           SKY/WX    TMP DP  RH WIND       PRES   REMARKS
GOODLAND       CLOUDY    60  60 100 N5        30.02R                  
HAYS           CLOUDY    65  64  97 S5        29.98R FOG              
HILL CITY      CLOUDY    64  63  96 E7        29.98R                  
RUSSELL        PTSUNNY   65  63  93 SW8       29.97R                  
$$

KSZ061>065-074>080-084>089-181500-
SOUTHWEST KANSAS
  
CITY           SKY/WX    TMP DP  RH WIND       PRES   REMARKS
DODGE CITY     SUNNY     66  64  93 E5        29.97S                  
ELKHART        PTSUNNY   67  63  86 SE6       30.00S                  
GARDEN CITY    MOSUNNY   65  63  93 SE5       29.97S                  
GREAT BEND     HVY RAIN  64  63  94 S5        29.99R FOG              
LIBERAL        MOSUNNY   66  61  84 E5        29.99S                  
PRATT          PTSUNNY   66  65  94 NE7       29.97S                  
$$

KSZ066>073-081>083-090>101-181500-
SOUTHEAST KANSAS
  
CITY           SKY/WX    TMP DP  RH WIND       PRES   REMARKS
CHANUTE        SUNNY     74  68  81 SE3       29.95R                  
COFFEYVILLE    SUNNY     74  68  81 VRB3      29.93R                  
HUTCHINSON     PTSUNNY   70  64  81 NW3       29.95R                  
MEDICINE LODGE   N/A     70  65  84 E5        29.94R                  
NEWTON         SUNNY     71  65  81 NW3       29.96R                  
PARSONS        SUNNY     75  69  81 VRB3      29.95S                  
WICHITA INTL   CLOUDY    76  65  68 CALM      29.94S                  
WICHITA JABRA  SUNNY     73  66  78 W5        29.95R                  
WICHITA MCCONL SUNNY     73  66  76 CALM      29.95                   
WINFIELD       SUNNY     74  67  78 SE6       29.95R                  
$$

KSZ007>012-019>026-033>040-048>060-102>105-181500-
NORTHEAST KANSAS
  
CITY           SKY/WX    TMP DP  RH WIND       PRES   REMARKS
CONCORDIA      CLOUDY    69  63  81 NE5       29.93S                  
EMPORIA        SUNNY     73  69  87 VRB3      29.93S                  
LAWRENCE       PTSUNNY   70  67  90 E5        29.94S                  
MANHATTAN      SUNNY     75  67  76 VRB6      29.92S                  
MARYSVILLE     SUNNY     73  68  83 SW3       29.95S                  
OLATHE IND     CLOUDY    66  65  96 NE5       29.96S FOG              
OLATHE EXE     CLOUDY    65  65 100 CALM      29.96S                  
SALINA         MOSUNNY   70  64  81 W3        29.93R                  
TOPEKA BILLARD SUNNY     74  67  78 E6        29.93F                  
TOPEKA FORBES  MOSUNNY   73  67  81 SE6       29.94S                  
$$